Content
SEND FEEDBACK

Daily
Averages
Monthly
Summary
United States of America

MCCORMICK, SOUTH CAROLINA


Home > North America > United States > South Carolina
Elevation: 15 meters     Latitude: 33 55N     Longitude: 082 09W

WEATHER
 
SELECT A DAY
Number of Records: 148,311;   Date Range: 5/24/00 - 9/18/14
 
SHARE

PRINT THIS DATA

[ ← Previous Day ]
WEATHER ALMANAC - 13 FEBRUARY, 2013
[ Next Day → ]
[ °F ]   °C
Weather ElementAverageHighLow
Temperature8 °C10.6 °C (3:56 pm)5.6 °C (11:56 pm)
Dewpoint6.9 °C8.9 °C (4:56 pm)3.3 °C (11:56 pm)
Humidity92.9 %100 % (3:32 am)71 % (6:56 pm)
Barometer1009.1 hPa1012.9 hPa (11:56 pm)1006.8 hPa (12:16 pm)
Wind Speed10.6 km/h22.2 km/h (2:53 pm)
Wind Gust37 km/h (6:56 pm)
Weather ElementAverage
Visibility9 km
Wind DirectionSSE (159.5 °)

Weather ElementTotal
Precipitation0.51 mm
Heating Degree Days10.2 (Base 18.3)
Averaged from 44 records on 13 February, 2013
WEATHER CONDITIONS BREAKOUT
WIND DIRECTION BREAKOUT
WEATHER BY HOUR - 13 FEBRUARY, 2013
[ °F ]   °C
Local TimeTemperatureDewpointHumidityBarometerVisibilityWind DirectionWind SpeedGust SpeedPrecipitationEventsConditions
1:29 AM8 °C7 °C93 %1011.5 hPa16.1 kmNNE (20°)11.1 km/h0 mmOvercast
1:56 AM7.8 °C7.2 °C96 %1011.2 hPa16.1 kmNorth (360°)7.4 km/h0 mmOvercast
2:56 AM7.8 °C6.7 °C93 %1010.8 hPa11.3 kmNNE (30°)9.3 km/h0.25 mmRainLight Rain
3:32 AM7 °C7 °C100 %1010.8 hPa12.9 kmNE (40°)9.3 km/h0 mmRainLight Rain
3:56 AM7.2 °C6.1 °C93 %1010.5 hPa14.5 kmNE (40°)7.4 km/h0 mmOvercast
4:56 AM6.7 °C6.1 °C96 %1009.5 hPa8 kmNE (40°)11.1 km/hOvercast
5:14 AM7 °C6 °C93 %1009.1 hPa11.3 kmNE (50°)9.3 km/hOvercast
5:56 AM7.2 °C6.1 °C93 %1009.5 hPa16.1 kmNNE (20°)9.3 km/hOvercast
6:56 AM6.7 °C6.1 °C96 %1009.1 hPa4.8 kmNE (40°)7.4 km/hOvercast
7:38 AM7 °C7 °C100 %1009.1 hPa3.2 kmVariable5.6 km/hOvercast
7:45 AM7 °C7 °C100 %1009.1 hPa2.9 kmCalmOvercast
7:56 AM6.7 °C6.7 °C100 %1008.5 hPa3.2 kmESE (120°)11.1 km/hOvercast
8:18 AM7 °C7 °C100 %1009.5 hPa4.8 kmCalmOvercast
8:27 AM7 °C7 °C100 %1008.5 hPa3.2 kmEast (90°)9.3 km/hOvercast
8:36 AM7 °C7 °C100 %1009.8 hPa2.9 kmNNW (330°)7.4 km/hOvercast
8:56 AM7.2 °C6.7 °C97 %1008.5 hPa2.4 kmESE (120°)9.3 km/hOvercast
9:10 AM7 °C7 °C100 %1008.8 hPa2.9 kmNorth (10°)5.6 km/hOvercast
9:56 AM7.2 °C7.2 °C100 %1008.5 hPa2.4 kmCalm0.25 mmOvercast
10:56 AM7.8 °C7.2 °C96 %1007.8 hPa1.9 kmVariable5.6 km/hOvercast
11:06 AM8 °C7 °C93 %1008.5 hPa2.4 kmCalmOvercast
11:15 AM8 °C7 °C93 %1008.5 hPa3.2 kmCalmOvercast
11:29 AM8 °C7 °C93 %1008.1 hPa4 kmSSE (160°)7.4 km/hOvercast
11:56 AM8.3 °C7.8 °C97 %1008.5 hPa3.2 kmWSW (250°)7.4 km/hOvercast
12:04 PM8 °C8 °C100 %1008.1 hPa2.9 kmWest (280°)5.6 km/hOvercast
12:16 PM8 °C8 °C100 %1006.8 hPa3.2 kmWSW (240°)7.4 km/hOvercast
12:27 PM8 °C8 °C100 %1008.1 hPa6.4 kmWSW (250°)11.1 km/hOvercast
12:56 PM8.3 °C7.8 °C97 %1008.1 hPa4 kmWSW (250°)13 km/h0 mmOvercast
1:18 PM8 °C8 °C100 %1007.1 hPa4.8 kmWSW (250°)18.5 km/h0 mmOvercast
1:33 PM8 °C8 °C100 %1007.8 hPa2.9 kmWSW (240°)16.7 km/h29.6 km/h0 mmOvercast
1:53 PM9 °C8 °C93 %1007.8 hPa4.8 kmWSW (250°)18.5 km/h31.5 km/h0 mmOvercast
1:54 PM8.9 °C8.3 °C96 %1007.8 hPa4.8 kmWSW (240°)20.4 km/h31.5 km/h0 mmOvercast
2:12 PM9 °C8 °C93 %1007.8 hPa16.1 kmWSW (250°)18.5 km/hOvercast
2:53 PM10 °C8 °C87 %1007.8 hPa16.1 kmWSW (250°)22.2 km/h29.6 km/hOvercast
2:56 PM10 °C8.3 °C89 %1007.5 hPa16.1 kmWSW (250°)16.7 km/h29.6 km/hOvercast
3:32 PM10 °C8 °C87 %1007.5 hPa16.1 kmWSW (240°)18.5 km/hScattered Clouds
3:56 PM10.6 °C8.3 °C86 %1007.5 hPa16.1 kmWSW (250°)14.8 km/hScattered Clouds
4:56 PM10.6 °C8.9 °C89 %1007.5 hPa16.1 kmSW (230°)14.8 km/hMostly Cloudy
5:56 PM10.6 °C7.2 °C80 %1008.5 hPa16.1 kmWSW (250°)20.4 km/h31.5 km/hPartly Cloudy
6:56 PM10 °C5 °C71 %1009.1 hPa16.1 kmWest (260°)18.5 km/h37 km/hClear
7:56 PM8.9 °C4.4 °C74 %1010.2 hPa16.1 kmWest (260°)22.2 km/hClear
8:56 PM8.3 °C4.4 °C77 %1010.8 hPa16.1 kmWest (260°)13 km/hClear
9:56 PM7.8 °C3.9 °C76 %1011.9 hPa16.1 kmWest (270°)9.3 km/hClear
10:56 PM6.1 °C3.9 °C86 %1012.2 hPa16.1 kmWest (260°)7.4 km/hClear
11:56 PM5.6 °C3.3 °C85 %1012.9 hPa16.1 kmWest (270°)7.4 km/hClear
Hourly data recorded from KGRD, located 0 kilometers away from McCormick, South Carolina







STORIES FROM OUR PARTNERS